Location: Санкт-Петербург
(59.9358°N, 30.3401°E)
Time: 05:28:42
(UTC+03:00)

ISS - Pass Details

Date: 01 February 2021
Orbit: 417 x 422 km, 51.6° (Epoch: 17 May)

Event Time Altitude Azimuth Distance (km) Brightness Sun altitude
Rises 19:03:32 0° 259° (W) 2,375 2.1 -13.5°
Reaches altitude 10° 19:06:12 10° 237° (WSW) 1,510 0.2 -13.8°
Maximum altitude 19:08:21 16° 197° (SSW) 1,195 -1.1 -14.1°
Drops below altitude 10° 19:10:31 10° 158° (SSE) 1,510 -1.1 -14.4°
Enters shadow 19:11:30 - 147° (SSE) 1,798 -0.8 -14.5°
